This is the latest recevied weather packets stored in our database for station/object W1HVD. If no packets are shown the sender has not sent any weather packets the latest 10 day(s).
| Time | Temp. | Humidity | Pressure | Rain* | Wind** | Luminosity | Snow |
|---|---|---|---|---|---|---|---|
| 1777831269 | 12.22° C | 49% | 1005.9 hPa | 0 mm | - | 360 W/m² | - |
| 1777830965 | 11.67° C | 49% | 1005.8 hPa | 0 mm | - | 354 W/m² | - |
| 1777830662 | 11.67° C | 53% | 1005.9 hPa | 0 mm | - | 356 W/m² | - |
| 1777830359 | 10.56° C | 53% | 1005.7 hPa | 0 mm | - | 294 W/m² | - |
| 1777830055 | 10.56° C | 51% | 1006.1 hPa | 0 mm | - | 269 W/m² | - |
| 1777829750 | 10.56° C | 54% | 1006.1 hPa | 0 mm | - | 239 W/m² | - |
| 1777829447 | 10° C | 52% | 1006.1 hPa | 0 mm | - | 270 W/m² | - |
| 1777829145 | 10° C | 54% | 1006.1 hPa | 0 mm | - | 225 W/m² | - |
| 1777828842 | 10° C | 55% | 1006 hPa | 0 mm | - | 186 W/m² | - |
| 1777828538 | 10° C | 55% | 1006 hPa | 0 mm | - | 189 W/m² | - |
| 1777828236 | 10° C | 55% | 1006 hPa | 0 mm | - | 210 W/m² | - |
| 1777827932 | 10° C | 57% | 1006.2 hPa | 0 mm | - | 213 W/m² | - |
| 1777827629 | 10° C | 58% | 1006 hPa | 0 mm | - | 185 W/m² | - |
| 1777827327 | 10° C | 59% | 1006 hPa | 0 mm | - | 215 W/m² | - |
| 1777827023 | 10° C | 58% | 1005.7 hPa | 0 mm | - | 310 W/m² | - |
| 1777826720 | 10° C | 60% | 1006 hPa | 0 mm | - | 306 W/m² | - |
| 1777826417 | 9.44° C | 60% | 1005.9 hPa | 0 mm | - | 262 W/m² | - |
| 1777826114 | 10° C | 62% | 1006.1 hPa | 0 mm | - | 237 W/m² | - |
| 1777825811 | 10° C | 62% | 1005.8 hPa | 0 mm | - | 276 W/m² | - |
| 1777825508 | 10° C | 66% | 1005.8 hPa | 0 mm | - | 219 W/m² | - |
| 1777825206 | 10° C | 67% | 1005.6 hPa | 0 mm | - | 205 W/m² | - |
| 1777824902 | 9.44° C | 68% | 1005.7 hPa | 0 mm | - | 495 W/m² | - |
| 1777824598 | 9.44° C | 72% | 1005.8 hPa | 0 mm | - | 648 W/m² | - |
| 1777824290 | 8.89° C | 72% | 1005.8 hPa | 0 mm | - | 203 W/m² | - |
| 1777823990 | 8.89° C | 74% | 1005.7 hPa | 0 mm | - | 214 W/m² | - |
* Rain latest hour (hover to see other rain measurements)
** Current wind speed in m/s (hover to see current wind gust speed)